| time (UTC) | temp F | wind direction | speed knots | gust knots | rain 1hr in | rain 24hr in | rain mn in | humidity % | barometer mb |
| 20260902210004 | 95 | 216 | 0.0 | 0.9 | 0.00 | 0.00 | 0.00 | 52 | 1015.0 |
| 20260902204503 | 95 | 286 | 0.0 | 5.2 | 0.00 | 0.00 | 0.00 | 50 | 1015.0 |
| 20260902203002 | 96 | 330 | 0.0 | 1.7 | 0.00 | 0.00 | 0.00 | 49 | 1015.1 |
| 20260902201616 | 96 | 271 | 0.0 | 5.2 | 0.00 | 0.00 | 0.00 | 50 | 1015.2 |
| 20260902200108 | 96 | 186 | 0.0 | 2.6 | 0.00 | 0.00 | 0.00 | 49 | 1015.3 |
| 20260902194601 | 96 | 249 | 0.9 | 3.5 | 0.00 | 0.00 | 0.00 | 50 | 1015.6 |
| 20260902193055 | 96 | 241 | 0.0 | 3.5 | 0.00 | 0.00 | 0.00 | 49 | 1015.8 |
| 20260902191600 | 96 | 227 | 1.7 | 4.3 | 0.00 | 0.00 | 0.00 | 50 | 1015.9 |
| 20260902190116 | 95 | 92 | 0.0 | 1.7 | 0.00 | 0.00 | 0.00 | 53 | 1016.0 |
| 20260902184556 | 95 | 240 | 0.9 | 3.5 | 0.00 | 0.00 | 0.00 | 52 | 1016.3 |
| 20260902183046 | 95 | 262 | 0.0 | 3.5 | 0.00 | 0.00 | 0.00 | 53 | 1016.4 |
| 20260902181557 | 95 | 260 | 0.9 | 4.3 | 0.00 | 0.00 | 0.00 | 53 | 1016.5 |
| 20260902180042 | 95 | 105 | 0.0 | 2.6 | 0.00 | 0.00 | 0.00 | 56 | 1016.7 |
| 20260902174542 | 93 | 234 | 0.0 | 3.5 | 0.00 | 0.00 | 0.00 | 55 | 1016.7 |
| 20260902173041 | 94 | 258 | 0.0 | 1.7 | 0.00 | 0.00 | 0.00 | 55 | 1017.0 |
| 20260902171553 | 93 | 155 | 0.0 | 3.5 | 0.00 | 0.00 | 0.00 | 59 | 1017.3 |
| 20260902170035 | 93 | 224 | 0.0 | 1.7 | 0.00 | 0.00 | 0.00 | 59 | 1017.4 |
| 20260902164532 | 93 | 81 | 0.0 | 0.9 | 0.00 | 0.00 | 0.00 | 61 | 1017.6 |
| 20260902163030 | 91 | 172 | 0.0 | 1.7 | 0.00 | 0.00 | 0.00 | 63 | 1017.9 |
| 20260902161534 | 91 | 58 | 0.0 | 2.6 | 0.00 | 0.00 | 0.00 | 65 | 1018.1 |
| 20260902160024 | 90 | 167 | 0.0 | 0.0 | 0.00 | 0.00 | 0.00 | 66 | 1018.2 |
| 20260902154519 | 88 | 307 | 0.0 | 1.7 | 0.00 | 0.00 | 0.00 | 70 | 1018.3 |
| 20260902153021 | 87 | 254 | 0.0 | 2.6 | 0.00 | 0.00 | 0.00 | 72 | 1018.5 |
| 20260902151516 | 87 | 246 | 0.9 | 2.6 | 0.00 | 0.00 | 0.00 | 73 | 1018.5 |
| 20260902150012 | 86 | 215 | 0.0 | 1.7 | 0.00 | 0.00 | 0.00 | 76 | 1018.4 |
| 20260902144510 | 85 | 283 | 0.9 | 3.5 | 0.00 | 0.00 | 0.00 | 76 | 1018.4 |
| 20260902143008 | 84 | 234 | 0.9 | 2.6 | 0.00 | 0.00 | 0.00 | 77 | 1018.4 |
| 20260902141504 | 84 | 237 | 0.0 | 4.3 | 0.00 | 0.00 | 0.00 | 79 | 1018.4 |
| 20260902140003 | 83 | 270 | 0.9 | 2.6 | 0.00 | 0.00 | 0.00 | 79 | 1018.3 |
| 20260902134615 | 82 | 233 | 0.0 | 1.7 | 0.00 | 0.00 | 0.00 | 82 | 1018.4 |
| 20260902133057 | 82 | 222 | 0.0 | 1.7 | 0.00 | 0.00 | 0.00 | 84 | 1018.5 |
| 20260902131552 | 81 | 182 | 0.0 | 0.0 | 0.00 | 0.00 | 0.00 | 91 | 1018.5 |
| 20260902130048 | 79 | 182 | 0.0 | 0.0 | 0.00 | 0.00 | 0.00 | 95 | 1018.5 |
| 20260902124545 | 77 | 182 | 0.0 | 0.0 | 0.00 | 0.00 | 0.00 | 97 | 1018.5 |
| 20260902123042 | 75 | 182 | 0.0 | 0.0 | 0.00 | 0.00 | 0.00 | 99 | 1018.4 |
| 20260902121540 | 74 | 182 | 0.0 | 0.0 | 0.00 | 0.00 | 0.00 | 99 | 1018.3 |
| 20260902120035 | 71 | 182 | 0.0 | 0.0 | 0.00 | 0.00 | 0.00 | 99 | 1018.1 |
| 20260902114536 | 70 | 182 | 0.0 | 0.9 | 0.00 | 0.00 | 0.00 | 99 | 1017.8 |
| 20260902113034 | 70 | 182 | 0.0 | 0.0 | 0.00 | 0.00 | 0.00 | 98 | 1017.7 |
| 20260902111529 | 70 | 182 | 0.0 | 0.0 | 0.00 | 0.00 | 0.00 | 98 | 1017.5 |
| 20260902110029 | 70 | 182 | 0.0 | 0.0 | 0.00 | 0.00 | 0.00 | 98 | 1017.4 |
| 20260902104533 | 70 | 182 | 0.0 | 0.0 | 0.00 | 0.00 | 0.00 | 98 | 1017.2 |
| 20260902103027 | 71 | 182 | 0.0 | 0.0 | 0.00 | 0.00 | 0.00 | 98 | 1017.1 |
| 20260902101522 | 71 | 182 | 0.0 | 0.0 | 0.00 | 0.00 | 0.00 | 98 | 1016.9 |
| 20260902100020 | 71 | 182 | 0.0 | 0.0 | 0.00 | 0.00 | 0.00 | 98 | 1016.9 |
| 20260902094520 | 71 | 182 | 0.0 | 0.0 | 0.00 | 0.00 | 0.00 | 98 | 1016.8 |
| 20260902093020 | 71 | 182 | 0.0 | 0.0 | 0.00 | 0.00 | 0.00 | 98 | 1016.8 |
| 20260902091517 | 71 | 182 | 0.0 | 0.0 | 0.00 | 0.00 | 0.00 | 97 | 1016.8 |
| 20260902090017 | 71 | 182 | 0.0 | 0.0 | 0.00 | 0.00 | 0.00 | 98 | 1016.7 |
| 20260902084519 | 71 | 182 | 0.0 | 0.0 | 0.00 | 0.00 | 0.00 | 97 | 1016.5 |
| 20260902083015 | 71 | 182 | 0.0 | 0.0 | 0.00 | 0.00 | 0.00 | 98 | 1016.3 |
| 20260902081513 | 71 | 182 | 0.0 | 0.0 | 0.00 | 0.00 | 0.00 | 97 | 1016.2 |
| 20260902080011 | 72 | 182 | 0.0 | 0.0 | 0.00 | 0.00 | 0.00 | 97 | 1016.2 |
| 20260902074510 | 72 | 182 | 0.0 | 0.0 | 0.00 | 0.00 | 0.00 | 97 | 1016.2 |
| 20260902073009 | 72 | 182 | 0.0 | 0.0 | 0.00 | 0.00 | 0.00 | 97 | 1016.3 |
| 20260902071514 | 72 | 197 | 0.0 | 0.0 | 0.00 | 0.00 | 0.00 | 97 | 1016.4 |
| 20260902070007 | 72 | 197 | 0.0 | 0.0 | 0.00 | 0.00 | 0.00 | 96 | 1016.6 |
| 20260902064520 | 72 | 198 | 0.0 | 0.0 | 0.00 | 0.00 | 0.00 | 97 | 1016.5 |
| 20260902063007 | 72 | 198 | 0.0 | 0.0 | 0.00 | 0.00 | 0.00 | 96 | 1016.4 |
| 20260902061502 | 72 | 198 | 0.0 | 0.0 | 0.00 | 0.00 | 0.00 | 96 | 1016.5 |
| 20260902060001 | 73 | 198 | 0.0 | 0.0 | 0.00 | 0.00 | 0.00 | 96 | 1016.5 |
| 20260902054504 | 73 | 198 | 0.0 | 0.0 | 0.00 | 0.00 | 0.00 | 95 | 1016.4 |
| 20260902053100 | 73 | 198 | 0.0 | 0.0 | 0.00 | 0.00 | 0.00 | 95 | 1016.4 |
| 20260902051600 | 73 | 198 | 0.0 | 0.0 | 0.00 | 0.00 | 0.00 | 94 | 1016.3 |
| 20260902050057 | 73 | 198 | 0.0 | 0.0 | 0.00 | 0.00 | 0.00 | 94 | 1016.3 |
| 20260902044555 | 73 | 198 | 0.0 | 0.0 | 0.00 | 0.00 | 0.00 | 94 | 1016.4 |
| 20260902043107 | 74 | 198 | 0.0 | 0.0 | 0.00 | 0.00 | 0.00 | 94 | 1016.5 |
| 20260902041602 | 74 | 198 | 0.0 | 0.0 | 0.00 | 0.00 | 0.00 | 93 | 1016.5 |
| 20260902040044 | 74 | 198 | 0.0 | 0.0 | 0.00 | 0.00 | 0.00 | 93 | 1016.5 |
| 20260902034549 | 74 | 198 | 0.0 | 0.0 | 0.00 | 0.00 | 0.00 | 93 | 1016.3 |
| 20260902033049 | 75 | 198 | 0.0 | 0.0 | 0.00 | 0.00 | 0.00 | 93 | 1016.3 |
| 20260902031542 | 75 | 198 | 0.0 | 0.0 | 0.00 | 0.00 | 0.00 | 92 | 1016.5 |
| 20260902030045 | 75 | 198 | 0.0 | 0.0 | 0.00 | 0.00 | 0.00 | 91 | 1016.4 |
| 20260902024542 | 76 | 198 | 0.0 | 0.0 | 0.00 | 0.00 | 0.00 | 91 | 1016.3 |
| 20260902023041 | 76 | 198 | 0.0 | 0.0 | 0.00 | 0.00 | 0.00 | 91 | 1016.3 |
| 20260902021540 | 76 | 198 | 0.0 | 0.0 | 0.00 | 0.00 | 0.00 | 90 | 1016.2 |
| 20260902020043 | 77 | 198 | 0.0 | 0.0 | 0.00 | 0.00 | 0.00 | 89 | 1016.2 |
| 20260902014548 | 77 | 198 | 0.0 | 0.0 | 0.00 | 0.00 | 0.00 | 88 | 1016.1 |
| 20260902013050 | 78 | 198 | 0.0 | 0.0 | 0.00 | 0.00 | 0.00 | 87 | 1016.0 |
| 20260902011538 | 78 | 198 | 0.0 | 0.0 | 0.00 | 0.00 | 0.00 | 86 | 1015.9 |
| 20260902010048 | 79 | 198 | 0.0 | 0.0 | 0.00 | 0.00 | 0.00 | 85 | 1015.8 |
| 20260902004538 | 80 | 198 | 0.0 | 0.0 | 0.00 | 0.00 | 0.00 | 84 | 1015.7 |
| 20260902003111 | 81 | 198 | 0.0 | 0.0 | 0.00 | 0.00 | 0.00 | 81 | 1015.6 |
| 20260902001537 | 82 | 198 | 0.0 | 0.0 | 0.00 | 0.00 | 0.00 | 78 | 1015.7 |
| 20260902000037 | 83 | 198 | 0.0 | 0.0 | 0.00 | 0.00 | 0.00 | 77 | 1015.7 |
| 20260901234538 | 85 | 203 | 0.0 | 0.0 | 0.00 | 0.00 | 0.00 | 74 | 1015.8 |
| 20260901233037 | 86 | 224 | 0.0 | 0.0 | 0.00 | 0.00 | 0.00 | 72 | 1015.8 |
| 20260901231540 | 87 | 224 | 0.0 | 0.0 | 0.00 | 0.00 | 0.00 | 68 | 1015.8 |
| 20260901230033 | 88 | 225 | 0.0 | 0.0 | 0.00 | 0.00 | 0.00 | 66 | 1015.8 |
| 20260901224532 | 89 | 229 | 0.0 | 1.7 | 0.00 | 0.00 | 0.00 | 63 | 1015.9 |
| 20260901223032 | 89 | 274 | 1.7 | 2.6 | 0.00 | 0.00 | 0.00 | 62 | 1015.7 |
| 20260901221538 | 90 | 236 | 0.0 | 3.5 | 0.00 | 0.00 | 0.00 | 61 | 1015.7 |
| 20260901220037 | 91 | 183 | 1.7 | 4.3 | 0.00 | 0.00 | 0.00 | 59 | 1015.7 |
| 20260901214529 | 91 | 207 | 0.0 | 2.6 | 0.00 | 0.00 | 0.00 | 59 | 1015.7 |
| 20260901213028 | 91 | 172 | 0.0 | 0.0 | 0.00 | 0.00 | 0.00 | 57 | 1015.8 |
| 20260901211527 | 92 | 123 | 0.0 | 0.0 | 0.00 | 0.00 | 0.00 | 56 | 1015.8 |